Location: *
(39.6167°S, 171.5333°W)
Time: 21:23:11
(UTC+00:00)

COSMOS 2455 - Pass Details

Date: 13 May 2021
Orbit: 902 x 908 km, 67.1° (Epoch: 15 June)

Event Time Altitude Azimuth Distance (km) Brightness Sun altitude
Exits shadow 16:44:38 32° 255° (WSW) 1,520 3.4 -18.8°
Maximum altitude 16:45:48 35° 232° (SW) 1,450 3.5 -18.6°
Drops below altitude 10° 16:51:18 10° 167° (SSE) 2,615 5.3 -17.6°
Sets 16:54:05 0° 158° (SSE) 3,561 6.1 -17.1°
